STARLINK-32618, 62045

Orbit data source: Space-Track

STARLINK-32618, 62045 is a payload satellite owned by SpaceX/Seattle (US) in LEO that was launched on Thu, 21 Nov 2024 UTC via an FALCON 9 launch vehicle from the Air Force Eastern Test Range (AFETR). Payloads include a variety of satellites, spacecraft, and rockets equipped with specific instruments for various scientific and technological missions. These include communications satellites like Starlink; space stations such as the ISS; scientific satellites like the Hubble; Earth observation satellites from companies like Planet Labs, Umbra, and HawkEye 360; GPS; miniature CubeSats for education and research; and military/defense satellites.

Loading next visibility...
STARLINK-32618 details
Identifier
62045, 2024-216P
Orbit
LEO
Last TLE update11 hours ago
Origin
Flag of USSpaceX/Seattle (US)
ManufacturerSpaceX/Seattle
MissionOperational spacecraft
Bus & MotorSTARLINK V2M, Unknown motor
Mass730 kg wet, ~700 kg dry
Launch date (UTC)
2024-11-21 (3 weeks ago)
Launch vehicle
FALCON 9
Launch site
Air Force Eastern Test Range (AFETR)
Object type
Payload
Rocket body
Debris
Shape & HBRUnknown
Radar Cross SectionLarge (>1 m²)

Expand to show TLE details & history

TLE from 11 hours ago
0 STARLINK-32618
1 62045U 24216P   24348.50002315 -.00008648  00000-0 -14170-3 0  9993
2 62045  42.9996 307.3633 0001142 277.8609 197.3051 15.50588461  4429
Epoch: 2024-12-13T12:00Z
Definitive object data (Epoch: 2024-12-13T12:00:02Z)
Latitude38.26331°
Longitude167.43443°
Altitude417.837 km
Speed7.666 km/s
True Right ascension04h 40m 25s
True Declination38° 05' 16"
Sunlit
Object was in full shadow at TLE epoch
Visualization TLE readout
Latitude43.03341°
Longitude137.44725°
Altitude418.907 km
Speed7.665 km/s
Apparent Right ascension05h 56m 03s
Apparent Declination4° 51' 05"
Sunlit
Object is in full shadow
Visualization observer readout
Local Sidereal Time21:15:48
Azimuth58.008° ENE
Elevation-25.952°
Doppler factor1
Orbital elements
Apogee altitude417.747 km
Perigee altitude416.195 km
Semi-major axis6,795.108 km
Eccentricity0.0001142
Inclination42.9996°
RAAN307.3633°
Arg. of periapsis277.8609°
True anomaly197.30121°
Mean anomaly197.3051°
Eccentric anomaly197.30315°
Mean motion3.87479 °/min
BSTAR-0.0001417
Orbital period92.91 mins
Loading maneuver chart data...
Loading historical data...
Loading historical data...
Loading historical data...
Loading historical data...
Loading historical data...
Loading historical data...
Loading historical data...

STARLINK-32618 Visibility forecast

Observer location: undefined°, undefined

Span
Click to sort rows by Start time (UTC) header in descending order
Start Az.
Max El. time (UTC)
Max El. Az.
Max El.
End time (UTC)
End Az.
4 mins2024-12-14 01:40:51.640Z239.784° WSW2024-12-14 01:42:51.640Z104.244° ESE42.142°2024-12-14 01:44:51.640Z75.356° E
5 mins2024-12-14 03:17:51.640Z286.134° WNW2024-12-14 03:19:51.640Z343.607° N36.551°2024-12-14 03:22:51.640Z70.595° E
5 mins2024-12-14 04:55:51.640Z295.446° NW2024-12-14 04:57:51.640Z37.026° NE42.348°2024-12-14 05:00:51.640Z97.411° ESE
4 mins2024-12-14 06:33:51.640Z247.596° W2024-12-14 06:34:51.640Z214.528° SW27.329°2024-12-14 06:37:51.640Z146.658° SSE
|